{"data":{"norad_id":39197,"epoch":"2026-09-19T23:25:21.324864Z","epoch_age_seconds":59573,"freshness":"FRESH","line1":"1 39197U 13033A   26262.97594126  .00000582  00000+0  72632-4 0  9998","line2":"2 39197  97.9274 101.9501 0024725  12.0271 348.1530 14.86042907714455","mean_motion":14.86042907,"eccentricity":0.0024725,"inclination_deg":97.9274,"raan_deg":101.9501,"arg_perigee_deg":12.0271,"mean_anomaly_deg":348.153,"bstar":7.2632e-5,"rev_number":71445,"period_min":96.901643500123,"perigee_km":593.03533537047,"apogee_km":627.59322695582,"semimajor_km":6988.4512811631,"source":"CELESTRAK","updated_at":"2026-09-20T09:00:47.145716Z"}}